| time (UTC) | temp F | wind direction | speed MPH | gust MPH | rain 1hr in | rain 24hr in | rain mn in | humidity % | barometer mb |
| 20260507034803 | 58 | 129 | 2.0 | 6.0 | 0.00 | 0.00 | 0.00 | 73 | 1010.4 |
| 20260507034603 | 58 | 136 | 2.0 | 6.0 | 0.00 | 0.00 | 0.00 | 73 | 1010.5 |
| 20260507034404 | 58 | 133 | 3.0 | 6.0 | 0.00 | 0.00 | 0.00 | 73 | 1010.5 |
| 20260507034203 | 58 | 132 | 3.0 | 6.0 | 0.00 | 0.00 | 0.00 | 73 | 1010.5 |
| 20260507034003 | 58 | 127 | 3.0 | 6.0 | 0.00 | 0.00 | 0.00 | 73 | 1010.4 |
| 20260507033803 | 58 | 116 | 3.0 | 6.0 | 0.00 | 0.00 | 0.00 | 72 | 1010.4 |
| 20260507033603 | 58 | 101 | 3.0 | 5.0 | 0.00 | 0.00 | 0.00 | 72 | 1010.4 |
| 20260507033403 | 58 | 87 | 3.0 | 5.0 | 0.00 | 0.00 | 0.00 | 72 | 1010.2 |
| 20260507033203 | 58 | 88 | 3.0 | 5.0 | 0.00 | 0.00 | 0.00 | 73 | 1010.4 |
| 20260507032603 | 58 | 109 | 2.0 | 5.0 | 0.00 | 0.00 | 0.00 | 73 | 1010.3 |
| 20260507032003 | 58 | 115 | 2.0 | 4.0 | 0.00 | 0.00 | 0.00 | 73 | 1010.3 |
| 20260507031803 | 58 | 108 | 2.0 | 4.0 | 0.00 | 0.00 | 0.00 | 73 | 1010.2 |
| 20260507031603 | 58 | 95 | 2.0 | 4.0 | 0.00 | 0.00 | 0.00 | 73 | 1010.3 |
| 20260507031403 | 58 | 86 | 2.0 | 6.0 | 0.00 | 0.00 | 0.00 | 73 | 1010.2 |
| 20260507031203 | 58 | 90 | 2.0 | 6.0 | 0.00 | 0.00 | 0.00 | 73 | 1010.0 |
| 20260507031003 | 58 | 93 | 2.0 | 6.0 | 0.00 | 0.00 | 0.00 | 73 | 1010.1 |
| 20260507030603 | 58 | 104 | 2.0 | 6.0 | 0.00 | 0.00 | 0.00 | 73 | 1010.0 |
| 20260507030403 | 58 | 107 | 2.0 | 6.0 | 0.00 | 0.00 | 0.00 | 73 | 1010.2 |
| 20260507030203 | 58 | 105 | 2.0 | 7.0 | 0.00 | 0.00 | 0.00 | 73 | 1010.2 |
| 20260507030003 | 58 | 126 | 2.0 | 7.0 | 0.00 | 0.00 | 0.00 | 73 | 1010.3 |
| 20260507025803 | 58 | 112 | 3.0 | 7.0 | 0.00 | 0.00 | 0.00 | 73 | 1010.3 |
| 20260507025603 | 59 | 108 | 2.0 | 7.0 | 0.00 | 0.00 | 0.00 | 73 | 1010.3 |
| 20260507025403 | 59 | 118 | 2.0 | 7.0 | 0.00 | 0.00 | 0.00 | 72 | 1010.3 |
| 20260507025203 | 59 | 132 | 3.0 | 7.0 | 0.00 | 0.00 | 0.00 | 72 | 1010.4 |
| 20260507025003 | 59 | 112 | 3.0 | 7.0 | 0.00 | 0.00 | 0.00 | 72 | 1010.5 |
| 20260507024803 | 59 | 108 | 3.0 | 7.0 | 0.00 | 0.00 | 0.00 | 72 | 1010.2 |
| 20260507024603 | 59 | 101 | 3.0 | 7.0 | 0.00 | 0.00 | 0.00 | 71 | 1010.3 |
| 20260507024403 | 59 | 97 | 4.0 | 7.0 | 0.00 | 0.00 | 0.00 | 71 | 1010.1 |
| 20260507024203 | 59 | 86 | 3.0 | 6.0 | 0.00 | 0.00 | 0.00 | 71 | 1010.1 |
| 20260507024003 | 59 | 72 | 3.0 | 6.0 | 0.00 | 0.00 | 0.00 | 71 | 1010.2 |
| 20260507023803 | 59 | 66 | 2.0 | 6.0 | 0.00 | 0.00 | 0.00 | 71 | 1010.2 |
| 20260507023403 | 60 | 67 | 1.0 | 5.0 | 0.00 | 0.00 | 0.00 | 71 | 1010.2 |
| 20260507023203 | 60 | 63 | 2.0 | 5.0 | 0.00 | 0.00 | 0.00 | 70 | 1010.1 |
| 20260507023003 | 60 | 55 | 2.0 | 5.0 | 0.00 | 0.00 | 0.00 | 70 | 1010.0 |
| 20260507022803 | 60 | 44 | 2.0 | 5.0 | 0.00 | 0.00 | 0.00 | 70 | 1010.0 |
| 20260507022603 | 60 | 46 | 2.0 | 5.0 | 0.00 | 0.00 | 0.00 | 70 | 1010.1 |
| 20260507022403 | 60 | 45 | 2.0 | 5.0 | 0.00 | 0.00 | 0.00 | 69 | 1010.1 |
| 20260507022203 | 60 | 41 | 1.0 | 5.0 | 0.00 | 0.00 | 0.00 | 69 | 1010.0 |
| 20260507022003 | 60 | 39 | 1.0 | 3.0 | 0.00 | 0.00 | 0.00 | 69 | 1010.1 |
| 20260507021803 | 60 | 34 | 1.0 | 3.0 | 0.00 | 0.00 | 0.00 | 69 | 1009.9 |
| 20260507021603 | 60 | 23 | 1.0 | 3.0 | 0.00 | 0.00 | 0.00 | 69 | 1009.9 |
| 20260507021404 | 60 | 8 | 1.0 | 2.0 | 0.00 | 0.00 | 0.00 | 69 | 1009.9 |
| 20260507020803 | 60 | 332 | 1.0 | 4.0 | 0.00 | 0.00 | 0.00 | 69 | 1010.1 |
| 20260507020603 | 60 | 318 | 1.0 | 4.0 | 0.00 | 0.00 | 0.00 | 69 | 1010.0 |
| 20260507020203 | 60 | 310 | 1.0 | 4.0 | 0.00 | 0.00 | 0.00 | 68 | 1010.0 |
| 20260507020003 | 61 | 345 | 1.0 | 4.0 | 0.00 | 0.00 | 0.00 | 68 | 1010.0 |
| 20260507015603 | 60 | 61 | 0.0 | 2.0 | 0.00 | 0.00 | 0.00 | 69 | 1009.8 |
| 20260507015403 | 60 | 64 | 0.0 | 2.0 | 0.00 | 0.00 | 0.00 | 69 | 1009.8 |
| 20260507015203 | 60 | 315 | 0.0 | 4.0 | 0.00 | 0.00 | 0.00 | 69 | 1009.9 |
| 20260507015003 | 60 | 260 | 1.0 | 5.0 | 0.00 | 0.00 | 0.00 | 69 | 1009.8 |
| 20260507014803 | 60 | 270 | 2.0 | 5.0 | 0.00 | 0.00 | 0.00 | 69 | 1009.7 |
| 20260507014603 | 60 | 277 | 2.0 | 6.0 | 0.00 | 0.00 | 0.00 | 70 | 1010.0 |
| 20260507014403 | 60 | 284 | 3.0 | 6.0 | 0.00 | 0.00 | 0.00 | 70 | 1009.8 |
| 20260507014203 | 59 | 289 | 4.0 | 8.0 | 0.00 | 0.00 | 0.00 | 70 | 1009.8 |
| 20260507014003 | 59 | 297 | 5.0 | 8.0 | 0.00 | 0.00 | 0.00 | 70 | 1009.7 |
| 20260507013603 | 59 | 301 | 6.0 | 8.0 | 0.00 | 0.00 | 0.00 | 70 | 1009.8 |
| 20260507013203 | 60 | 299 | 6.0 | 8.0 | 0.00 | 0.00 | 0.00 | 69 | 1009.9 |
| 20260507013003 | 60 | 301 | 6.0 | 8.0 | 0.00 | 0.00 | 0.00 | 69 | 1009.7 |
| 20260507012803 | 60 | 300 | 5.0 | 9.0 | 0.00 | 0.00 | 0.00 | 69 | 1009.7 |
| 20260507012603 | 60 | 303 | 5.0 | 9.0 | 0.00 | 0.00 | 0.00 | 68 | 1009.7 |
| 20260507012403 | 60 | 307 | 5.0 | 9.0 | 0.00 | 0.00 | 0.00 | 68 | 1009.6 |
| 20260507012203 | 61 | 309 | 6.0 | 10.0 | 0.00 | 0.00 | 0.00 | 67 | 1009.7 |
| 20260507011803 | 61 | 280 | 5.0 | 10.0 | 0.00 | 0.00 | 0.00 | 66 | 1009.8 |
| 20260507011603 | 61 | 266 | 5.0 | 12.0 | 0.00 | 0.00 | 0.00 | 66 | 1009.6 |
| 20260507011403 | 61 | 258 | 5.0 | 12.0 | 0.00 | 0.00 | 0.00 | 66 | 1009.7 |
| 20260507011203 | 61 | 251 | 5.0 | 12.0 | 0.00 | 0.00 | 0.00 | 66 | 1009.6 |
| 20260507011003 | 61 | 252 | 5.0 | 12.0 | 0.00 | 0.00 | 0.00 | 66 | 1009.3 |
| 20260507010803 | 61 | 249 | 5.0 | 12.0 | 0.00 | 0.00 | 0.00 | 66 | 1009.5 |
| 20260507010603 | 61 | 247 | 5.0 | 12.0 | 0.00 | 0.00 | 0.00 | 66 | 1009.3 |
| 20260507010403 | 61 | 245 | 6.0 | 11.0 | 0.00 | 0.00 | 0.00 | 66 | 1009.5 |
| 20260507010203 | 61 | 236 | 6.0 | 11.0 | 0.00 | 0.00 | 0.00 | 66 | 1009.3 |
| 20260507010003 | 61 | 231 | 6.0 | 13.0 | 0.00 | 0.00 | 0.00 | 66 | 1009.3 |
| 20260507005803 | 61 | 232 | 6.0 | 13.0 | 0.00 | 0.00 | 0.00 | 66 | 1009.2 |
| 20260507005603 | 61 | 229 | 6.0 | 13.0 | 0.00 | 0.00 | 0.00 | 65 | 1009.3 |
| 20260507005403 | 61 | 230 | 6.0 | 13.0 | 0.00 | 0.00 | 0.00 | 65 | 1009.3 |
| 20260507004803 | 62 | 250 | 7.0 | 16.0 | 0.00 | 0.00 | 0.00 | 65 | 1009.2 |
| 20260507004403 | 62 | 245 | 8.0 | 16.0 | 0.00 | 0.00 | 0.00 | 65 | 1009.3 |
| 20260507004203 | 62 | 241 | 7.0 | 16.0 | 0.00 | 0.00 | 0.00 | 65 | 1009.2 |
| 20260507003803 | 62 | 230 | 8.0 | 14.0 | 0.00 | 0.00 | 0.00 | 65 | 1009.0 |
| 20260507003403 | 62 | 231 | 8.0 | 14.0 | 0.00 | 0.00 | 0.00 | 65 | 1009.3 |
| 20260507003203 | 62 | 224 | 8.0 | 14.0 | 0.00 | 0.00 | 0.00 | 65 | 1009.2 |
| 20260507003003 | 61 | 225 | 8.0 | 14.0 | 0.00 | 0.00 | 0.00 | 65 | 1009.1 |
| 20260507002803 | 61 | 228 | 7.0 | 14.0 | 0.00 | 0.00 | 0.00 | 66 | 1009.4 |
| 20260507002603 | 61 | 230 | 7.0 | 14.0 | 0.00 | 0.00 | 0.00 | 65 | 1009.3 |
| 20260507002403 | 61 | 232 | 7.0 | 14.0 | 0.00 | 0.00 | 0.00 | 65 | 1009.3 |
| 20260507002003 | 62 | 227 | 7.0 | 14.0 | 0.00 | 0.00 | 0.00 | 65 | 1009.1 |
| 20260507001803 | 61 | 233 | 7.0 | 14.0 | 0.00 | 0.00 | 0.00 | 65 | 1009.1 |
| 20260507001603 | 61 | 234 | 6.0 | 12.0 | 0.00 | 0.00 | 0.00 | 65 | 1009.3 |
| 20260507001403 | 61 | 236 | 6.0 | 12.0 | 0.00 | 0.00 | 0.00 | 66 | 1009.2 |
| 20260507001203 | 61 | 241 | 6.0 | 12.0 | 0.00 | 0.00 | 0.00 | 65 | 1009.3 |
| 20260507001003 | 61 | 245 | 7.0 | 12.0 | 0.00 | 0.00 | 0.00 | 65 | 1009.3 |
| 20260507000603 | 62 | 240 | 7.0 | 13.0 | 0.00 | 0.00 | 0.00 | 65 | 1009.3 |
| 20260507000405 | 62 | 236 | 8.0 | 13.0 | 0.00 | 0.00 | 0.00 | 65 | 1009.3 |
| 20260507000205 | 62 | 233 | 8.0 | 13.0 | 0.00 | 0.00 | 0.00 | 65 | 1009.3 |
| 20260507000003 | 62 | 236 | 7.0 | 13.0 | 0.00 | 0.00 | 0.00 | 65 | 1009.0 |
| 20260506235603 | 62 | 237 | 6.0 | 12.0 | 0.00 | 0.00 | 0.00 | 65 | 1009.2 |
| 20260506235003 | 62 | 246 | 6.0 | 12.0 | 0.00 | 0.00 | 0.00 | 65 | 1009.2 |
| 20260506234603 | 62 | 256 | 5.0 | 11.0 | 0.00 | 0.00 | 0.00 | 64 | 1009.3 |
| 20260506234403 | 62 | 253 | 5.0 | 11.0 | 0.00 | 0.00 | 0.00 | 64 | 1009.1 |
| 20260506234203 | 62 | 254 | 5.0 | 11.0 | 0.00 | 0.00 | 0.00 | 64 | 1009.3 |
| 20260506234003 | 62 | 252 | 5.0 | 11.0 | 0.00 | 0.00 | 0.00 | 64 | 1009.3 |
| 20260506233803 | 62 | 246 | 5.0 | 12.0 | 0.00 | 0.00 | 0.00 | 64 | 1009.2 |
| 20260506233603 | 62 | 247 | 6.0 | 13.0 | 0.00 | 0.00 | 0.00 | 64 | 1009.3 |
| 20260506233403 | 62 | 246 | 6.0 | 13.0 | 0.00 | 0.00 | 0.00 | 64 | 1009.2 |
| 20260506233203 | 62 | 246 | 6.0 | 13.0 | 0.00 | 0.00 | 0.00 | 64 | 1009.1 |
| 20260506233003 | 62 | 243 | 7.0 | 13.0 | 0.00 | 0.00 | 0.00 | 64 | 1009.2 |
| 20260506232603 | 62 | 245 | 7.0 | 13.0 | 0.00 | 0.00 | 0.00 | 64 | 1009.3 |
| 20260506232003 | 62 | 266 | 5.0 | 11.0 | 0.00 | 0.00 | 0.00 | 64 | 1009.2 |
| 20260506231803 | 62 | 271 | 5.0 | 11.0 | 0.00 | 0.00 | 0.00 | 64 | 1009.3 |
| 20260506231603 | 62 | 271 | 5.0 | 12.0 | 0.00 | 0.00 | 0.00 | 64 | 1009.4 |
| 20260506231403 | 62 | 264 | 5.0 | 12.0 | 0.00 | 0.00 | 0.00 | 64 | 1009.3 |
| 20260506231203 | 62 | 259 | 5.0 | 12.0 | 0.00 | 0.00 | 0.00 | 64 | 1009.1 |
| 20260506231003 | 62 | 249 | 6.0 | 12.0 | 0.00 | 0.00 | 0.00 | 64 | 1009.2 |
| 20260506230403 | 62 | 236 | 5.0 | 11.0 | 0.00 | 0.00 | 0.00 | 64 | 1009.2 |
| 20260506230203 | 62 | 234 | 5.0 | 11.0 | 0.00 | 0.00 | 0.00 | 65 | 1009.3 |
| 20260506230003 | 62 | 239 | 4.0 | 8.0 | 0.00 | 0.00 | 0.00 | 65 | 1009.3 |
| 20260506225803 | 62 | 249 | 3.0 | 5.0 | 0.00 | 0.00 | 0.00 | 65 | 1009.2 |
| 20260506225603 | 62 | 259 | 3.0 | 5.0 | 0.00 | 0.00 | 0.00 | 65 | 1009.3 |
| 20260506225403 | 62 | 266 | 2.0 | 5.0 | 0.00 | 0.00 | 0.00 | 65 | 1009.2 |
| 20260506225203 | 62 | 264 | 3.0 | 5.0 | 0.00 | 0.00 | 0.00 | 65 | 1009.1 |
| 20260506224803 | 62 | 267 | 3.0 | 7.0 | 0.00 | 0.00 | 0.00 | 65 | 1009.2 |
| 20260506224603 | 62 | 250 | 3.0 | 7.0 | 0.00 | 0.00 | 0.00 | 65 | 1009.1 |
| 20260506224403 | 62 | 243 | 3.0 | 7.0 | 0.00 | 0.00 | 0.00 | 64 | 1009.1 |
| 20260506224203 | 62 | 239 | 4.0 | 9.0 | 0.00 | 0.00 | 0.00 | 64 | 1009.1 |
| 20260506224003 | 62 | 239 | 4.0 | 9.0 | 0.00 | 0.00 | 0.00 | 64 | 1009.0 |
| 20260506223803 | 62 | 236 | 4.0 | 9.0 | 0.00 | 0.00 | 0.00 | 64 | 1008.9 |
| 20260506223603 | 62 | 235 | 5.0 | 11.0 | 0.00 | 0.00 | 0.00 | 64 | 1009.2 |
| 20260506223403 | 62 | 235 | 5.0 | 11.0 | 0.00 | 0.00 | 0.00 | 64 | 1009.0 |
| 20260506223203 | 63 | 237 | 5.0 | 11.0 | 0.00 | 0.00 | 0.00 | 64 | 1009.0 |
| 20260506223003 | 63 | 233 | 6.0 | 13.0 | 0.00 | 0.00 | 0.00 | 64 | 1008.8 |
| 20260506222603 | 63 | 228 | 8.0 | 14.0 | 0.00 | 0.00 | 0.00 | 63 | 1008.8 |
| 20260506222403 | 63 | 226 | 8.0 | 14.0 | 0.00 | 0.00 | 0.00 | 63 | 1008.8 |
| 20260506222203 | 63 | 220 | 8.0 | 14.0 | 0.00 | 0.00 | 0.00 | 63 | 1008.8 |
| 20260506222003 | 63 | 215 | 9.0 | 15.0 | 0.00 | 0.00 | 0.00 | 63 | 1008.6 |
| 20260506221803 | 63 | 216 | 9.0 | 15.0 | 0.00 | 0.00 | 0.00 | 63 | 1008.5 |
| 20260506221603 | 63 | 211 | 9.0 | 16.0 | 0.00 | 0.00 | 0.00 | 63 | 1008.5 |
| 20260506221403 | 63 | 209 | 10.0 | 19.0 | 0.00 | 0.00 | 0.00 | 63 | 1008.5 |
| 20260506221203 | 63 | 216 | 10.0 | 19.0 | 0.00 | 0.00 | 0.00 | 63 | 1008.5 |
| 20260506221003 | 63 | 220 | 9.0 | 19.0 | 0.00 | 0.00 | 0.00 | 63 | 1008.4 |
| 20260506220803 | 63 | 216 | 9.0 | 19.0 | 0.00 | 0.00 | 0.00 | 63 | 1008.4 |
| 20260506220603 | 63 | 226 | 9.0 | 19.0 | 0.00 | 0.00 | 0.00 | 62 | 1008.6 |
| 20260506220203 | 64 | 228 | 9.0 | 17.0 | 0.00 | 0.00 | 0.00 | 62 | 1008.5 |
| 20260506220003 | 64 | 231 | 10.0 | 17.0 | 0.00 | 0.00 | 0.00 | 62 | 1008.5 |
| 20260506215803 | 64 | 234 | 9.0 | 17.0 | 0.00 | 0.00 | 0.00 | 62 | 1008.4 |
| 20260506215603 | 64 | 232 | 9.0 | 16.0 | 0.00 | 0.00 | 0.00 | 62 | 1008.8 |
| 20260506215403 | 64 | 231 | 10.0 | 16.0 | 0.00 | 0.00 | 0.00 | 62 | 1008.4 |
| 20260506215003 | 64 | 217 | 10.0 | 16.0 | 0.00 | 0.00 | 0.00 | 62 | 1008.5 |
| 20260506214803 | 64 | 217 | 9.0 | 16.0 | 0.00 | 0.00 | 0.00 | 62 | 1008.4 |
| 20260506214603 | 64 | 218 | 9.0 | 17.0 | 0.00 | 0.00 | 0.00 | 62 | 1008.6 |
| 20260506214203 | 64 | 226 | 9.0 | 17.0 | 0.00 | 0.00 | 0.00 | 62 | 1008.5 |
| 20260506214003 | 64 | 229 | 9.0 | 17.0 | 0.00 | 0.00 | 0.00 | 61 | 1008.5 |
| 20260506213803 | 64 | 230 | 9.0 | 17.0 | 0.00 | 0.00 | 0.00 | 61 | 1008.6 |
| 20260506213603 | 64 | 228 | 9.0 | 19.0 | 0.00 | 0.00 | 0.00 | 61 | 1008.4 |
| 20260506213403 | 64 | 230 | 9.0 | 19.0 | 0.00 | 0.00 | 0.00 | 61 | 1008.3 |
| 20260506213203 | 64 | 231 | 8.0 | 19.0 | 0.00 | 0.00 | 0.00 | 61 | 1008.3 |
| 20260506213003 | 64 | 230 | 8.0 | 19.0 | 0.00 | 0.00 | 0.00 | 61 | 1008.4 |
| 20260506212803 | 64 | 225 | 8.0 | 19.0 | 0.00 | 0.00 | 0.00 | 61 | 1008.4 |
| 20260506212603 | 64 | 222 | 9.0 | 19.0 | 0.00 | 0.00 | 0.00 | 61 | 1008.5 |
| 20260506212403 | 64 | 217 | 9.0 | 17.0 | 0.00 | 0.00 | 0.00 | 61 | 1008.4 |
| 20260506212203 | 64 | 214 | 9.0 | 18.0 | 0.00 | 0.00 | 0.00 | 61 | 1008.3 |
| 20260506212003 | 64 | 209 | 9.0 | 18.0 | 0.00 | 0.00 | 0.00 | 61 | 1008.2 |
| 20260506211803 | 64 | 215 | 10.0 | 18.0 | 0.00 | 0.00 | 0.00 | 61 | 1008.3 |
| 20260506211603 | 65 | 216 | 10.0 | 19.0 | 0.00 | 0.00 | 0.00 | 61 | 1008.4 |
| 20260506211203 | 65 | 221 | 11.0 | 19.0 | 0.00 | 0.00 | 0.00 | 60 | 1008.2 |
| 20260506211003 | 65 | 227 | 10.0 | 19.0 | 0.00 | 0.00 | 0.00 | 60 | 1008.1 |
| 20260506210403 | 65 | 222 | 10.0 | 19.0 | 0.00 | 0.00 | 0.00 | 60 | 1008.2 |
| 20260506210203 | 65 | 221 | 10.0 | 19.0 | 0.00 | 0.00 | 0.00 | 60 | 1008.1 |
| 20260506210003 | 65 | 219 | 11.0 | 19.0 | 0.00 | 0.00 | 0.00 | 60 | 1008.2 |
| 20260506205803 | 65 | 222 | 10.0 | 19.0 | 0.00 | 0.00 | 0.00 | 60 | 1008.2 |
| 20260506205403 | 65 | 227 | 11.0 | 18.0 | 0.00 | 0.00 | 0.00 | 60 | 1008.1 |
| 20260506205203 | 65 | 223 | 11.0 | 18.0 | 0.00 | 0.00 | 0.00 | 60 | 1008.3 |
| 20260506205004 | 65 | 222 | 10.0 | 18.0 | 0.00 | 0.00 | 0.00 | 60 | 1008.3 |
| 20260506204603 | 65 | 223 | 10.0 | 21.0 | 0.00 | 0.00 | 0.00 | 60 | 1008.0 |
| 20260506204403 | 65 | 217 | 10.0 | 21.0 | 0.00 | 0.00 | 0.00 | 60 | 1008.0 |
| 20260506204003 | 65 | 218 | 11.0 | 21.0 | 0.00 | 0.00 | 0.00 | 60 | 1008.1 |
| 20260506203803 | 65 | 215 | 11.0 | 21.0 | 0.00 | 0.00 | 0.00 | 60 | 1008.2 |
| 20260506203603 | 65 | 220 | 12.0 | 21.0 | 0.00 | 0.00 | 0.00 | 59 | 1008.1 |
| 20260506203403 | 65 | 227 | 12.0 | 21.0 | 0.00 | 0.00 | 0.00 | 60 | 1008.2 |
| 20260506203203 | 65 | 230 | 12.0 | 21.0 | 0.00 | 0.00 | 0.00 | 60 | 1008.2 |
| 20260506202803 | 65 | 227 | 11.0 | 21.0 | 0.00 | 0.00 | 0.00 | 60 | 1008.3 |
| 20260506202603 | 65 | 225 | 10.0 | 21.0 | 0.00 | 0.00 | 0.00 | 60 | 1008.4 |
| 20260506202403 | 65 | 217 | 10.0 | 19.0 | 0.00 | 0.00 | 0.00 | 60 | 1008.5 |
| 20260506202003 | 65 | 222 | 9.0 | 17.0 | 0.00 | 0.00 | 0.00 | 60 | 1008.4 |
| 20260506201803 | 65 | 222 | 9.0 | 18.0 | 0.00 | 0.00 | 0.00 | 59 | 1008.2 |
| 20260506201403 | 65 | 222 | 10.0 | 18.0 | 0.00 | 0.00 | 0.00 | 59 | 1008.2 |
| 20260506201203 | 66 | 220 | 10.0 | 20.0 | 0.00 | 0.00 | 0.00 | 59 | 1008.3 |
| 20260506201003 | 66 | 219 | 11.0 | 20.0 | 0.00 | 0.00 | 0.00 | 59 | 1008.2 |
| 20260506200803 | 66 | 218 | 10.0 | 20.0 | 0.00 | 0.00 | 0.00 | 59 | 1008.3 |
| 20260506200603 | 66 | 223 | 9.0 | 20.0 | 0.00 | 0.00 | 0.00 | 59 | 1008.4 |
| 20260506200403 | 66 | 221 | 9.0 | 20.0 | 0.00 | 0.00 | 0.00 | 59 | 1008.6 |
| 20260506200203 | 66 | 221 | 9.0 | 20.0 | 0.00 | 0.00 | 0.00 | 59 | 1008.5 |
| 20260506200003 | 66 | 226 | 8.0 | 19.0 | 0.00 | 0.00 | 0.00 | 59 | 1008.3 |
| 20260506195603 | 66 | 228 | 10.0 | 19.0 | 0.00 | 0.00 | 0.00 | 58 | 1008.5 |
| 20260506195403 | 66 | 232 | 9.0 | 19.0 | 0.00 | 0.00 | 0.00 | 58 | 1008.3 |
| 20260506195203 | 66 | 235 | 9.0 | 19.0 | 0.00 | 0.00 | 0.00 | 58 | 1008.5 |
| 20260506195003 | 66 | 234 | 9.0 | 19.0 | 0.00 | 0.00 | 0.00 | 58 | 1008.4 |
| 20260506194803 | 66 | 233 | 9.0 | 17.0 | 0.00 | 0.00 | 0.00 | 58 | 1008.3 |
| 20260506194603 | 66 | 226 | 9.0 | 18.0 | 0.00 | 0.00 | 0.00 | 58 | 1008.5 |
| 20260506194403 | 66 | 222 | 10.0 | 18.0 | 0.00 | 0.00 | 0.00 | 58 | 1008.4 |
| 20260506194203 | 66 | 216 | 10.0 | 18.0 | 0.00 | 0.00 | 0.00 | 57 | 1008.5 |
| 20260506193603 | 66 | 214 | 10.0 | 18.0 | 0.00 | 0.00 | 0.00 | 57 | 1008.3 |
| 20260506193403 | 66 | 213 | 10.0 | 17.0 | 0.00 | 0.00 | 0.00 | 57 | 1008.4 |
| 20260506193203 | 66 | 216 | 9.0 | 17.0 | 0.00 | 0.00 | 0.00 | 57 | 1008.4 |
| 20260506192803 | 66 | 214 | 8.0 | 16.0 | 0.00 | 0.00 | 0.00 | 56 | 1008.3 |
| 20260506192403 | 67 | 220 | 6.0 | 15.0 | 0.00 | 0.00 | 0.00 | 56 | 1008.5 |
| 20260506192203 | 66 | 222 | 5.0 | 14.0 | 0.00 | 0.00 | 0.00 | 57 | 1008.3 |
| 20260506192003 | 66 | 228 | 5.0 | 12.0 | 0.00 | 0.00 | 0.00 | 57 | 1008.4 |
| 20260506191803 | 66 | 229 | 4.0 | 11.0 | 0.00 | 0.00 | 0.00 | 57 | 1008.1 |
| 20260506191603 | 67 | 229 | 5.0 | 11.0 | 0.00 | 0.00 | 0.00 | 56 | 1008.2 |
| 20260506191403 | 67 | 228 | 5.0 | 15.0 | 0.00 | 0.00 | 0.00 | 56 | 1008.0 |
| 20260506191203 | 67 | 227 | 6.0 | 15.0 | 0.00 | 0.00 | 0.00 | 55 | 1008.3 |
| 20260506190803 | 67 | 236 | 7.0 | 15.0 | 0.00 | 0.00 | 0.00 | 55 | 1007.8 |
| 20260506190603 | 67 | 230 | 7.0 | 15.0 | 0.00 | 0.00 | 0.00 | 55 | 1008.2 |
| 20260506190403 | 67 | 229 | 7.0 | 15.0 | 0.00 | 0.00 | 0.00 | 55 | 1008.1 |
| 20260506190203 | 67 | 229 | 7.0 | 14.0 | 0.00 | 0.00 | 0.00 | 55 | 1008.0 |
| 20260506190003 | 67 | 225 | 7.0 | 13.0 | 0.00 | 0.00 | 0.00 | 55 | 1008.0 |
| 20260506185803 | 67 | 220 | 7.0 | 13.0 | 0.00 | 0.00 | 0.00 | 54 | 1007.8 |
| 20260506185603 | 67 | 231 | 7.0 | 12.0 | 0.00 | 0.00 | 0.00 | 54 | 1007.7 |
| 20260506185403 | 67 | 244 | 7.0 | 15.0 | 0.00 | 0.00 | 0.00 | 54 | 1007.9 |
| 20260506185003 | 67 | 245 | 7.0 | 16.0 | 0.00 | 0.00 | 0.00 | 54 | 1007.6 |
| 20260506184803 | 68 | 242 | 8.0 | 16.0 | 0.00 | 0.00 | 0.00 | 54 | 1007.8 |
| 20260506184403 | 68 | 232 | 8.0 | 16.0 | 0.00 | 0.00 | 0.00 | 53 | 1007.8 |
| 20260506184003 | 68 | 236 | 8.0 | 16.0 | 0.00 | 0.00 | 0.00 | 53 | 1007.5 |
| 20260506183603 | 68 | 236 | 9.0 | 16.0 | 0.00 | 0.00 | 0.00 | 53 | 1007.3 |
| 20260506183403 | 68 | 232 | 8.0 | 18.0 | 0.00 | 0.00 | 0.00 | 53 | 1007.3 |
| 20260506183203 | 68 | 234 | 9.0 | 18.0 | 0.00 | 0.00 | 0.00 | 53 | 1007.3 |
| 20260506183003 | 68 | 232 | 9.0 | 18.0 | 0.00 | 0.00 | 0.00 | 53 | 1007.3 |
| 20260506182803 | 68 | 230 | 9.0 | 18.0 | 0.00 | 0.00 | 0.00 | 53 | 1007.2 |
| 20260506182603 | 68 | 233 | 8.0 | 18.0 | 0.00 | 0.00 | 0.00 | 53 | 1007.3 |
| 20260506182403 | 68 | 234 | 8.0 | 18.0 | 0.00 | 0.00 | 0.00 | 52 | 1007.3 |
| 20260506182203 | 68 | 234 | 9.0 | 17.0 | 0.00 | 0.00 | 0.00 | 52 | 1007.3 |
| 20260506181803 | 68 | 233 | 10.0 | 20.0 | 0.00 | 0.00 | 0.00 | 52 | 1007.3 |
| 20260506181603 | 69 | 238 | 11.0 | 21.0 | 0.00 | 0.00 | 0.00 | 51 | 1007.4 |
| 20260506181403 | 69 | 234 | 12.0 | 21.0 | 0.00 | 0.00 | 0.00 | 51 | 1007.4 |
| 20260506181203 | 69 | 228 | 13.0 | 21.0 | 0.00 | 0.00 | 0.00 | 51 | 1007.2 |
| 20260506181003 | 69 | 226 | 13.0 | 21.0 | 0.00 | 0.00 | 0.00 | 51 | 1007.3 |
| 20260506180603 | 69 | 219 | 13.0 | 21.0 | 0.00 | 0.00 | 0.00 | 51 | 1007.5 |
| 20260506180403 | 69 | 222 | 10.0 | 21.0 | 0.00 | 0.00 | 0.00 | 51 | 1007.3 |
| 20260506180203 | 69 | 221 | 10.0 | 21.0 | 0.00 | 0.00 | 0.00 | 51 | 1007.3 |
| 20260506175803 | 69 | 223 | 10.0 | 19.0 | 0.00 | 0.00 | 0.00 | 50 | 1007.4 |
| 20260506175603 | 69 | 224 | 11.0 | 21.0 | 0.00 | 0.00 | 0.00 | 50 | 1007.3 |
| 20260506175403 | 69 | 221 | 12.0 | 21.0 | 0.00 | 0.00 | 0.00 | 50 | 1007.5 |
| 20260506175003 | 70 | 223 | 11.0 | 21.0 | 0.00 | 0.00 | 0.00 | 50 | 1007.4 |
| 20260506174603 | 70 | 221 | 11.0 | 21.0 | 0.00 | 0.00 | 0.00 | 50 | 1007.3 |
| 20260506174403 | 70 | 226 | 11.0 | 22.0 | 0.00 | 0.00 | 0.00 | 50 | 1007.3 |
| 20260506174203 | 70 | 221 | 11.0 | 22.0 | 0.00 | 0.00 | 0.00 | 50 | 1007.3 |
| 20260506174003 | 70 | 218 | 11.0 | 22.0 | 0.00 | 0.00 | 0.00 | 50 | 1007.4 |
| 20260506173803 | 70 | 220 | 11.0 | 22.0 | 0.00 | 0.00 | 0.00 | 50 | 1007.2 |
| 20260506173603 | 70 | 222 | 10.0 | 22.0 | 0.00 | 0.00 | 0.00 | 50 | 1007.4 |
| 20260506173403 | 70 | 218 | 10.0 | 19.0 | 0.00 | 0.00 | 0.00 | 50 | 1007.4 |
| 20260506172803 | 70 | 220 | 9.0 | 19.0 | 0.00 | 0.00 | 0.00 | 49 | 1007.1 |
| 20260506172603 | 70 | 218 | 9.0 | 20.0 | 0.00 | 0.00 | 0.00 | 49 | 1007.1 |
| 20260506172403 | 70 | 217 | 10.0 | 20.0 | 0.00 | 0.00 | 0.00 | 49 | 1006.9 |
| 20260506171603 | 70 | 217 | 12.0 | 21.0 | 0.00 | 0.00 | 0.00 | 49 | 1007.1 |
| 20260506171403 | 70 | 222 | 12.0 | 21.0 | 0.00 | 0.00 | 0.00 | 49 | 1007.1 |
| 20260506171203 | 71 | 228 | 12.0 | 21.0 | 0.00 | 0.00 | 0.00 | 48 | 1007.1 |
| 20260506171003 | 71 | 222 | 12.0 | 21.0 | 0.00 | 0.00 | 0.00 | 48 | 1007.1 |
| 20260506170803 | 71 | 227 | 12.0 | 21.0 | 0.00 | 0.00 | 0.00 | 48 | 1007.1 |
| 20260506170603 | 71 | 226 | 12.0 | 21.0 | 0.00 | 0.00 | 0.00 | 48 | 1007.2 |
| 20260506170403 | 71 | 226 | 11.0 | 21.0 | 0.00 | 0.00 | 0.00 | 48 | 1007.3 |
| 20260506170003 | 71 | 229 | 10.0 | 21.0 | 0.00 | 0.00 | 0.00 | 48 | 1007.3 |
| 20260506165803 | 71 | 220 | 11.0 | 21.0 | 0.00 | 0.00 | 0.00 | 48 | 1006.9 |
| 20260506165603 | 71 | 219 | 12.0 | 21.0 | 0.00 | 0.00 | 0.00 | 48 | 1007.1 |
| 20260506165403 | 71 | 220 | 11.0 | 21.0 | 0.00 | 0.00 | 0.00 | 48 | 1007.2 |
| 20260506165203 | 71 | 222 | 11.0 | 21.0 | 0.00 | 0.00 | 0.00 | 47 | 1007.3 |
| 20260506165003 | 71 | 223 | 11.0 | 21.0 | 0.00 | 0.00 | 0.00 | 47 | 1007.3 |
| 20260506164803 | 71 | 224 | 10.0 | 23.0 | 0.00 | 0.00 | 0.00 | 47 | 1006.9 |
| 20260506164403 | 71 | 224 | 10.0 | 25.0 | 0.00 | 0.00 | 0.00 | 47 | 1007.1 |
| 20260506164003 | 71 | 219 | 13.0 | 25.0 | 0.00 | 0.00 | 0.00 | 47 | 1007.1 |
| 20260506163803 | 71 | 217 | 15.0 | 25.0 | 0.00 | 0.00 | 0.00 | 47 | 1007.1 |
| 20260506163603 | 71 | 213 | 15.0 | 25.0 | 0.00 | 0.00 | 0.00 | 47 | 1007.1 |
| 20260506163403 | 71 | 210 | 15.0 | 25.0 | 0.00 | 0.00 | 0.00 | 46 | 1006.9 |
| 20260506163203 | 71 | 210 | 14.0 | 24.0 | 0.00 | 0.00 | 0.00 | 46 | 1007.1 |
| 20260506163003 | 71 | 212 | 14.0 | 24.0 | 0.00 | 0.00 | 0.00 | 46 | 1007.3 |
| 20260506162803 | 71 | 214 | 14.0 | 24.0 | 0.00 | 0.00 | 0.00 | 46 | 1006.9 |
| 20260506162603 | 71 | 210 | 13.0 | 24.0 | 0.00 | 0.00 | 0.00 | 46 | 1007.1 |
| 20260506162403 | 71 | 211 | 12.0 | 24.0 | 0.00 | 0.00 | 0.00 | 46 | 1007.1 |
| 20260506162203 | 71 | 217 | 13.0 | 24.0 | 0.00 | 0.00 | 0.00 | 46 | 1006.9 |
| 20260506162003 | 72 | 221 | 13.0 | 24.0 | 0.00 | 0.00 | 0.00 | 45 | 1007.2 |
| 20260506161803 | 72 | 226 | 13.0 | 24.0 | 0.00 | 0.00 | 0.00 | 45 | 1007.2 |
| 20260506161603 | 72 | 233 | 12.0 | 24.0 | 0.00 | 0.00 | 0.00 | 45 | 1007.1 |
| 20260506161203 | 72 | 232 | 13.0 | 24.0 | 0.00 | 0.00 | 0.00 | 45 | 1007.1 |
| 20260506161003 | 72 | 224 | 12.0 | 23.0 | 0.00 | 0.00 | 0.00 | 45 | 1006.9 |
| 20260506160803 | 72 | 226 | 13.0 | 25.0 | 0.00 | 0.00 | 0.00 | 45 | 1007.1 |
| 20260506160603 | 72 | 225 | 12.0 | 25.0 | 0.00 | 0.00 | 0.00 | 45 | 1007.2 |
| 20260506160403 | 72 | 224 | 13.0 | 25.0 | 0.00 | 0.00 | 0.00 | 45 | 1006.8 |
| 20260506160203 | 72 | 224 | 12.0 | 25.0 | 0.00 | 0.00 | 0.00 | 45 | 1006.9 |
| 20260506160003 | 72 | 227 | 12.0 | 25.0 | 0.00 | 0.00 | 0.00 | 44 | 1006.8 |
| 20260506155803 | 72 | 225 | 12.0 | 25.0 | 0.00 | 0.00 | 0.00 | 44 | 1007.2 |
| 20260506155603 | 72 | 220 | 14.0 | 26.0 | 0.00 | 0.00 | 0.00 | 44 | 1007.1 |
| 20260506155403 | 72 | 219 | 14.0 | 26.0 | 0.00 | 0.00 | 0.00 | 44 | 1007.1 |
| 20260506155003 | 72 | 220 | 14.0 | 26.0 | 0.00 | 0.00 | 0.00 | 44 | 1007.2 |
| 20260506154603 | 73 | 221 | 14.0 | 26.0 | 0.00 | 0.00 | 0.00 | 44 | 1007.2 |
| 20260506154403 | 73 | 224 | 13.0 | 25.0 | 0.00 | 0.00 | 0.00 | 43 | 1007.3 |
| 20260506154203 | 73 | 227 | 14.0 | 25.0 | 0.00 | 0.00 | 0.00 | 43 | 1007.4 |
| 20260506154003 | 73 | 230 | 14.0 | 25.0 | 0.00 | 0.00 | 0.00 | 43 | 1007.4 |
| 20260506153803 | 73 | 231 | 15.0 | 25.0 | 0.00 | 0.00 | 0.00 | 43 | 1007.3 |
| 20260506153603 | 73 | 229 | 15.0 | 25.0 | 0.00 | 0.00 | 0.00 | 43 | 1007.3 |
| 20260506153403 | 73 | 226 | 15.0 | 26.0 | 0.00 | 0.00 | 0.00 | 43 | 1007.3 |
| 20260506153203 | 73 | 223 | 16.0 | 26.0 | 0.00 | 0.00 | 0.00 | 43 | 1007.2 |
| 20260506153003 | 73 | 223 | 15.0 | 28.0 | 0.00 | 0.00 | 0.00 | 43 | 1007.3 |
| 20260506152803 | 73 | 227 | 15.0 | 28.0 | 0.00 | 0.00 | 0.00 | 42 | 1007.1 |
| 20260506152603 | 73 | 234 | 14.0 | 28.0 | 0.00 | 0.00 | 0.00 | 42 | 1007.2 |
| 20260506152203 | 74 | 236 | 13.0 | 28.0 | 0.00 | 0.00 | 0.00 | 41 | 1007.2 |
| 20260506152003 | 74 | 232 | 13.0 | 28.0 | 0.00 | 0.00 | 0.00 | 41 | 1006.9 |
| 20260506151803 | 74 | 235 | 12.0 | 24.0 | 0.00 | 0.00 | 0.00 | 41 | 1007.1 |
| 20260506151603 | 74 | 234 | 13.0 | 24.0 | 0.00 | 0.00 | 0.00 | 41 | 1006.9 |
| 20260506151403 | 75 | 235 | 13.0 | 27.0 | 0.00 | 0.00 | 0.00 | 40 | 1006.9 |
| 20260506151203 | 74 | 238 | 14.0 | 29.0 | 0.00 | 0.00 | 0.00 | 40 | 1006.9 |
| 20260506150803 | 75 | 235 | 14.0 | 29.0 | 0.00 | 0.00 | 0.00 | 39 | 1006.9 |
| 20260506150603 | 74 | 233 | 14.0 | 29.0 | 0.00 | 0.00 | 0.00 | 40 | 1006.9 |
| 20260506150403 | 74 | 233 | 15.0 | 29.0 | 0.00 | 0.00 | 0.00 | 40 | 1007.2 |
| 20260506150203 | 75 | 230 | 14.0 | 29.0 | 0.00 | 0.00 | 0.00 | 40 | 1006.9 |
| 20260506150003 | 75 | 229 | 12.0 | 28.0 | 0.00 | 0.00 | 0.00 | 40 | 1007.3 |
| 20260506145803 | 75 | 228 | 13.0 | 28.0 | 0.00 | 0.00 | 0.00 | 40 | 1007.2 |
| 20260506145603 | 75 | 227 | 13.0 | 25.0 | 0.00 | 0.00 | 0.00 | 40 | 1007.2 |
| 20260506145203 | 75 | 230 | 12.0 | 25.0 | 0.00 | 0.00 | 0.00 | 40 | 1007.1 |
| 20260506145003 | 75 | 231 | 13.0 | 25.0 | 0.00 | 0.00 | 0.00 | 40 | 1007.2 |
| 20260506144803 | 75 | 227 | 13.0 | 25.0 | 0.00 | 0.00 | 0.00 | 40 | 1007.3 |
| 20260506144603 | 75 | 226 | 12.0 | 25.0 | 0.00 | 0.00 | 0.00 | 40 | 1007.1 |
| 20260506144403 | 75 | 227 | 12.0 | 26.0 | 0.00 | 0.00 | 0.00 | 40 | 1007.1 |
| 20260506144203 | 75 | 227 | 13.0 | 26.0 | 0.00 | 0.00 | 0.00 | 40 | 1007.3 |
| 20260506144003 | 75 | 228 | 13.0 | 26.0 | 0.00 | 0.00 | 0.00 | 40 | 1007.2 |
| 20260506143803 | 75 | 226 | 13.0 | 26.0 | 0.00 | 0.00 | 0.00 | 41 | 1007.4 |
| 20260506143603 | 74 | 226 | 13.0 | 26.0 | 0.00 | 0.00 | 0.00 | 41 | 1007.3 |
| 20260506143403 | 75 | 227 | 14.0 | 26.0 | 0.00 | 0.00 | 0.00 | 40 | 1007.1 |
| 20260506143203 | 75 | 222 | 13.0 | 23.0 | 0.00 | 0.00 | 0.00 | 40 | 1007.4 |
| 20260506143003 | 75 | 223 | 13.0 | 29.0 | 0.00 | 0.00 | 0.00 | 40 | 1007.3 |
| 20260506142803 | 75 | 229 | 13.0 | 29.0 | 0.00 | 0.00 | 0.00 | 41 | 1007.4 |
| 20260506142603 | 75 | 231 | 14.0 | 29.0 | 0.00 | 0.00 | 0.00 | 41 | 1007.3 |
| 20260506142403 | 75 | 224 | 14.0 | 29.0 | 0.00 | 0.00 | 0.00 | 40 | 1007.2 |
| 20260506142203 | 75 | 227 | 15.0 | 29.0 | 0.00 | 0.00 | 0.00 | 40 | 1007.4 |
| 20260506142003 | 75 | 230 | 15.0 | 29.0 | 0.00 | 0.00 | 0.00 | 40 | 1007.3 |
| 20260506141803 | 75 | 232 | 14.0 | 25.0 | 0.00 | 0.00 | 0.00 | 41 | 1007.3 |
| 20260506141603 | 75 | 232 | 15.0 | 27.0 | 0.00 | 0.00 | 0.00 | 40 | 1007.3 |
| 20260506141403 | 75 | 242 | 15.0 | 32.0 | 0.00 | 0.00 | 0.00 | 40 | 1007.4 |
| 20260506141203 | 76 | 248 | 15.0 | 32.0 | 0.00 | 0.00 | 0.00 | 40 | 1007.3 |
| 20260506141003 | 75 | 251 | 13.0 | 32.0 | 0.00 | 0.00 | 0.00 | 40 | 1007.5 |
| 20260506140803 | 75 | 247 | 13.0 | 32.0 | 0.00 | 0.00 | 0.00 | 40 | 1007.6 |
| 20260506140603 | 75 | 243 | 13.0 | 32.0 | 0.00 | 0.00 | 0.00 | 39 | 1007.2 |
| 20260506140403 | 75 | 238 | 15.0 | 32.0 | 0.00 | 0.00 | 0.00 | 39 | 1007.4 |
| 20260506140203 | 75 | 229 | 14.0 | 25.0 | 0.00 | 0.00 | 0.00 | 39 | 1007.5 |
| 20260506140003 | 75 | 220 | 15.0 | 28.0 | 0.00 | 0.00 | 0.00 | 39 | 1007.3 |
| 20260506135003 | 76 | 238 | 14.0 | 30.0 | 0.00 | 0.00 | 0.00 | 39 | 1007.4 |
| 20260506134803 | 76 | 239 | 14.0 | 35.0 | 0.00 | 0.00 | 0.00 | 39 | 1007.4 |
| 20260506134603 | 75 | 242 | 14.0 | 35.0 | 0.00 | 0.00 | 0.00 | 39 | 1007.5 |
| 20260506134403 | 75 | 242 | 15.0 | 35.0 | 0.00 | 0.00 | 0.00 | 39 | 1007.5 |
| 20260506134203 | 75 | 240 | 14.0 | 35.0 | 0.00 | 0.00 | 0.00 | 39 | 1007.6 |
| 20260506134003 | 75 | 237 | 14.0 | 35.0 | 0.00 | 0.00 | 0.00 | 38 | 1007.3 |
| 20260506133803 | 76 | 233 | 14.0 | 35.0 | 0.00 | 0.00 | 0.00 | 39 | 1007.4 |
| 20260506133603 | 75 | 233 | 14.0 | 29.0 | 0.00 | 0.00 | 0.00 | 40 | 1007.6 |
| 20260506133403 | 75 | 238 | 14.0 | 28.0 | 0.00 | 0.00 | 0.00 | 39 | 1007.6 |
| 20260506133203 | 76 | 235 | 13.0 | 28.0 | 0.00 | 0.00 | 0.00 | 38 | 1007.8 |
| 20260506133003 | 76 | 236 | 13.0 | 25.0 | 0.00 | 0.00 | 0.00 | 39 | 1007.8 |